Gbstr 26 Del rocket - Orbit

View from above orbital plane
View from above orbital plane
View from above satellite
View from above satellite

Ground track
Ground track

The orbit data is extracted from the following two-line orbital elements,

1 25876U 99041E   13138.20303927  .00003044  00000-0  57179-3 0  1088
2 25876 051.7653 068.2053 0546594 010.7648 131.1224 14.00824898705336
Epoch (UTC): 18 May 2013 04:52:22
Eccentricity: 0.0546594
inclination: 51.7653°
perigee height: 493 km
apogee height: 1288 km
right ascension of ascending node: 68.2053°
argument of perigee: 10.7648°
revolutions per day: 14.00824898
mean anomaly at epoch: 131.1224°
orbit number at epoch: 70533

The dashed part of the orbit path shows where the satellite is in the earth's shadow,  

Developed and maintained by Chris Peat, Heavens-Above GmbH. Please read the updated FAQ before sending e-mail. Imprint. DLR